TimeCDT,TemperatureF,Dew PointF,Humidity,Sea Level PressureIn,VisibilityMPH,Wind Direction,Wind SpeedMPH,Gust SpeedMPH,PrecipitationIn,Events,Conditions,WindDirDegrees,DateUTC
12:53 AM,54.0,52.0,93,30.17,10.0,Calm,Calm,-,N/A,,Clear,0,2013-08-16 05:53:00
1:53 AM,51.1,48.9,92,30.17,10.0,Calm,Calm,-,N/A,,Clear,0,2013-08-16 06:53:00
2:53 AM,51.1,48.9,92,30.16,10.0,Calm,Calm,-,N/A,,Clear,0,2013-08-16 07:53:00
3:53 AM,48.9,48.9,100,30.17,6.0,Calm,Calm,-,N/A,,Clear,0,2013-08-16 08:53:00
4:06 AM,48.2,48.2,100,30.18,1.2,Calm,Calm,-,N/A,,Clear,0,2013-08-16 09:06:00
4:10 AM,48.2,48.2,100,30.18,3.0,Calm,Calm,-,N/A,,Clear,0,2013-08-16 09:10:00
4:49 AM,48.2,46.4,93,30.19,1.5,Calm,Calm,-,N/A,,Clear,0,2013-08-16 09:49:00
4:53 AM,48.0,46.9,96,30.17,0.8,Calm,Calm,-,N/A,,Clear,0,2013-08-16 09:53:00
5:18 AM,48.2,48.2,100,30.20,2.0,Calm,Calm,-,N/A,,Clear,0,2013-08-16 10:18:00
5:25 AM,48.2,48.2,100,30.20,10.0,Calm,Calm,-,N/A,,Clear,0,2013-08-16 10:25:00
5:53 AM,46.9,46.9,100,30.19,10.0,Calm,Calm,-,N/A,,Clear,0,2013-08-16 10:53:00
6:20 AM,46.4,46.4,100,30.21,1.0,Calm,Calm,-,N/A,,Mist,0,2013-08-16 11:20:00
6:27 AM,48.2,46.4,93,30.21,0.5,Calm,Calm,-,N/A,Fog,Fog,0,2013-08-16 11:27:00
6:32 AM,48.2,46.4,93,30.21,2.0,Calm,Calm,-,N/A,,Partly Cloudy,0,2013-08-16 11:32:00
6:38 AM,48.2,48.2,100,30.21,0.8,Calm,Calm,-,N/A,,Mist,0,2013-08-16 11:38:00
6:48 AM,46.4,46.4,100,30.21,0.2,Calm,Calm,-,N/A,Fog,Fog,0,2013-08-16 11:48:00
6:53 AM,48.0,48.0,100,30.20,0.5,Calm,Calm,-,N/A,Fog,Fog,0,2013-08-16 11:53:00
6:58 AM,48.2,48.2,100,30.22,1.5,Calm,Calm,-,N/A,,Partly Cloudy,0,2013-08-16 11:58:00
7:05 AM,48.2,48.2,100,30.22,1.0,Calm,Calm,-,N/A,,Mist,0,2013-08-16 12:05:00
7:08 AM,48.2,48.2,100,30.22,0.2,Calm,Calm,-,N/A,Fog,Fog,0,2013-08-16 12:08:00
7:21 AM,51.8,51.8,100,30.22,1.2,Calm,Calm,-,N/A,,Scattered Clouds,0,2013-08-16 12:21:00
7:23 AM,51.8,51.8,100,30.22,4.0,Calm,Calm,-,N/A,,Scattered Clouds,0,2013-08-16 12:23:00
7:53 AM,57.9,55.9,93,30.21,4.0,Calm,Calm,-,N/A,,Clear,0,2013-08-16 12:53:00
8:53 AM,62.1,59.0,90,30.22,8.0,Calm,Calm,-,N/A,,Clear,0,2013-08-16 13:53:00
9:53 AM,68.0,57.0,68,30.22,10.0,Calm,Calm,-,N/A,,Clear,0,2013-08-16 14:53:00
10:53 AM,71.1,55.0,57,30.22,10.0,Calm,Calm,-,N/A,,Clear,0,2013-08-16 15:53:00
11:53 AM,73.0,53.1,49,30.21,10.0,SSE,6.9,-,N/A,,Partly Cloudy,150,2013-08-16 16:53:00
12:53 PM,73.9,53.1,48,30.21,10.0,South,6.9,-,N/A,,Partly Cloudy,190,2013-08-16 17:53:00
1:53 PM,73.9,53.1,48,30.20,10.0,South,4.6,-,N/A,,Partly Cloudy,180,2013-08-16 18:53:00
2:53 PM,75.9,53.1,45,30.19,10.0,SSE,4.6,-,N/A,,Partly Cloudy,160,2013-08-16 19:53:00
3:53 PM,75.9,52.0,43,30.19,10.0,SSW,4.6,-,N/A,,Clear,210,2013-08-16 20:53:00
4:53 PM,75.9,51.1,42,30.19,10.0,SSE,6.9,-,N/A,,Clear,160,2013-08-16 21:53:00
5:53 PM,75.0,51.1,43,30.18,10.0,SSE,8.1,-,N/A,,Clear,160,2013-08-16 22:53:00
6:53 PM,73.0,55.0,53,30.19,10.0,SSE,4.6,-,N/A,,Clear,150,2013-08-16 23:53:00
7:53 PM,69.1,55.9,63,30.19,10.0,SE,3.5,-,N/A,,Clear,140,2013-08-17 00:53:00
8:53 PM,61.0,55.9,83,30.20,10.0,SSE,3.5,-,N/A,,Clear,150,2013-08-17 01:53:00
9:53 PM,59.0,55.0,87,30.20,10.0,South,3.5,-,N/A,,Clear,170,2013-08-17 02:53:00
10:53 PM,57.0,54.0,89,30.20,10.0,Calm,Calm,-,N/A,,Clear,0,2013-08-17 03:53:00
11:53 PM,55.9,53.1,90,30.20,10.0,South,3.5,-,N/A,,Clear,180,2013-08-17 04:53:00